User: anonymous   Login
Location: Newark
(44.4156°N, 12.1972°E)
Time: 20:36:53
(UTC+00:00)
Language:

STARLINK-1088 - Orbit

View from above orbital plane
View from above orbital plane
View from above satellite
View from above satellite

Ground track
Ground track

The orbit data is extracted from the following two-line orbital elements,

1 44966C 20001BE  20088.53536112  .00004848  00000-0  52855-4 0   888
2 44966  53.0001 352.7924 0001285  56.6808  51.7086 15.62737449    17
Epoch (UTC): 28 March 2020 12:50:55
Eccentricity: 0.0001285
inclination: 53.0001°
perigee height: 379 km
apogee height: 380 km
right ascension of ascending node: 352.7924°
argument of perigee: 56.6808°
revolutions per day: 15.62737449
mean anomaly at epoch: 51.7086°
orbit number at epoch: 1

The dashed part of the orbit path shows where the satellite is in the earth's shadow,  

DLR